This is the latest recevied weather packets stored in our database for station/object OE5OVL-13. If no packets are shown the sender has not sent any weather packets the latest 10 day(s).
| Time | Temp. | Humidity | Pressure | Rain* | Wind** | Luminosity | Snow |
|---|---|---|---|---|---|---|---|
| 1777004032 | 5.56° C | 71% | 1021.2 hPa | 0 mm | - | - | - |
| 1777003120 | 5° C | 72% | 1021.2 hPa | 0 mm | - | - | - |
| 1777002208 | 5° C | 72% | 1021.3 hPa | 0 mm | - | - | - |
| 1777001297 | 5° C | 72% | 1021.3 hPa | 0 mm | - | - | - |
| 1777000385 | 5° C | 73% | 1021.3 hPa | 0 mm | - | - | - |
| 1776999473 | 5° C | 72% | 1021.3 hPa | 0 mm | - | - | - |
| 1776998562 | 5° C | 71% | 1021.2 hPa | 0 mm | - | - | - |
| 1776997650 | 5° C | 71% | 1021.3 hPa | 0 mm | - | - | - |
| 1776996738 | 5.56° C | 69% | 1021.3 hPa | 0 mm | - | - | - |
| 1776995826 | 5.56° C | 69% | 1021.2 hPa | 0 mm | - | - | - |
| 1776994915 | 6.11° C | 68% | 1021.2 hPa | 0 mm | - | - | - |
| 1776994003 | 6.11° C | 68% | 1021.3 hPa | 0 mm | - | - | - |
| 1776993091 | 6.67° C | 66% | 1021.1 hPa | 0 mm | - | - | - |
| 1776992179 | 6.67° C | 66% | 1021.1 hPa | 0 mm | - | - | - |
| 1776991268 | 6.67° C | 66% | 1021.1 hPa | 0 mm | - | - | - |
| 1776990356 | 6.67° C | 65% | 1021 hPa | 0 mm | - | - | - |
| 1776989445 | 7.22° C | 64% | 1021.1 hPa | 0 mm | - | - | - |
| 1776988532 | 7.22° C | 64% | 1021.3 hPa | 0 mm | - | - | - |
| 1776986709 | 7.78° C | 61% | 1021.4 hPa | 0 mm | - | - | - |
| 1776985799 | 7.78° C | 61% | 1021.4 hPa | 0 mm | - | - | - |
| 1776984885 | 8.33° C | 59% | 1021.4 hPa | 0 mm | - | - | - |
| 1776983974 | 8.89° C | 58% | 1021.4 hPa | 0 mm | - | - | - |
| 1776983064 | 8.89° C | 58% | 1021.4 hPa | 0 mm | - | - | - |
| 1776982150 | 9.44° C | 55% | 1021.3 hPa | 0 mm | - | - | - |
| 1776981238 | 9.44° C | 54% | 1021.5 hPa | 0 mm | - | - | - |
* Rain latest hour (hover to see other rain measurements)
** Current wind speed in m/s (hover to see current wind gust speed)